English version Home page |
Updated on September 14, 2013 |
|
軌道要素Epoch 2012 Dec. 19.0 TT = JDT 2456280.5 T 2012 Dec. 4.47645 TT MPC q 1.2798987 (2000.0) P Q n 0.05399592 Peri. 171.19247 +0.86099773 -0.41122054 a 6.9325886 Node 218.01210 +0.43201657 +0.90185814 e 0.8153794 Incl. 29.07884 +0.26841124 -0.13247475 P 18.3 From 1124 observations 1994 Dec. 12-2013 Jan. 24, mean residual 0".6.
|
星図
|
光度変化m1 = 12.5 + 5 logΔ + 15 log r [ ,-25] ( 〜2012年11月 9日) m1 = -10 + 5 logΔ + 200 log r [-25, 0] (2012年11月 9日〜2012年12月 4日) m1 = 9 + 5 logΔ + 22 log r [ 0, ] (2012年12月 4日〜 )
|
軌道要素はM.P.E.C. 2013-B90に掲載されたものです。
|